FW6587 Weather Reports


Display with metric or nautical units.
time (UTC)temp
F
wind
direction
speed
MPH
gust
MPH
rain 1hr
in
rain 24hr
in
rain mn
in
humidity
%
barometer
mb
20260905090135 65 0 0.0 0.0 0.00 0.00 0.00 46 1027.0
20260905084552 66 0 0.0 0.0 0.00 0.00 0.00 48 1027.1
20260905083101 66 0 0.0 0.0 0.00 0.00 0.00 47 1027.1
20260905081601 67 0 0.0 0.0 0.00 0.00 0.00 48 1027.3
20260905080059 67 0 0.0 0.0 0.00 0.00 0.00 47 1027.2
20260905074551 67 0 0.0 0.0 0.00 0.00 0.00 45 1027.2
20260905073054 68 0 0.0 0.0 0.00 0.00 0.00 44 1027.4
20260905071611 69 0 0.0 0.0 0.00 0.00 0.00 42 1027.1
20260905070104 69 0 0.0 0.0 0.00 0.00 0.00 41 1027.3
20260905064555 70 0 0.0 0.0 0.00 0.00 0.00 40 1027.2
20260905063105 70 0 0.0 0.0 0.00 0.00 0.00 40 1027.0
20260905061555 71 0 0.0 0.0 0.00 0.00 0.00 39 1027.0
20260905060057 71 0 0.0 0.0 0.00 0.00 0.00 39 1027.0
20260905054556 70 0 0.0 0.0 0.00 0.00 0.00 40 1026.8
20260905053057 70 0 0.0 0.0 0.00 0.00 0.00 44 1026.8
20260905051601 71 0 0.0 0.0 0.00 0.00 0.00 44 1026.7
20260905050101 72 0 0.0 0.0 0.00 0.00 0.00 42 1026.9
20260905044607 72 0 0.0 0.0 0.00 0.00 0.00 39 1026.8
20260905043102 73 0 0.0 0.0 0.00 0.00 0.00 39 1026.9
20260905041602 73 0 0.0 0.0 0.00 0.00 0.00 41 1026.7
20260905040059 75 0 0.0 0.0 0.00 0.00 0.00 41 1026.8
20260905034617 76 0 0.0 1.0 0.00 0.00 0.00 38 1026.9
20260905033055 76 0 0.0 0.0 0.00 0.00 0.00 36 1026.9
20260905031603 77 0 0.0 0.0 0.00 0.00 0.00 34 1026.7
20260905030056 78 0 0.0 0.0 0.00 0.00 0.00 33 1026.6
20260905024605 80 0 0.0 0.0 0.00 0.00 0.00 31 1026.4
20260905023102 81 0 0.0 0.0 0.00 0.00 0.00 29 1026.2
20260905021605 81 0 0.0 1.0 0.00 0.00 0.00 29 1025.9
20260905020103 82 0 0.0 0.0 0.00 0.00 0.00 29 1025.8
20260905014556 82 0 0.0 0.0 0.00 0.00 0.00 28 1025.8
20260905013120 83 0 0.0 0.0 0.00 0.00 0.00 27 1025.7
20260905011607 85 68 0.0 3.0 0.00 0.00 0.00 27 1025.6
20260905010106 86 0 0.0 2.0 0.00 0.00 0.00 26 1025.5
20260905004638 88 104 0.0 6.0 0.00 0.00 0.00 24 1025.5
20260905003103 89 128 1.0 7.0 0.00 0.00 0.00 23 1025.4
20260905001608 90 63 1.0 7.0 0.00 0.00 0.00 22 1025.5
20260905000100 92 119 1.0 8.0 0.00 0.00 0.00 21 1025.2
20260904234600 92 0 0.0 7.0 0.00 0.00 0.00 20 1025.2
20260904233105 93 100 1.0 3.0 0.00 0.00 0.00 20 1025.1
20260904231601 94 0 1.0 6.0 0.00 0.00 0.00 17 1025.0
20260904230109 95 107 0.0 2.0 0.00 0.00 0.00 17 1025.0
20260904224556 95 0 1.0 4.0 0.00 0.00 0.00 16 1025.1
20260904223101 94 0 0.0 3.0 0.00 0.00 0.00 17 1025.1
20260904221556 94 0 2.0 7.0 0.00 0.00 0.00 16 1025.2
20260904220106 94 236 0.0 4.0 0.00 0.00 0.00 16 1025.2
20260904214613 94 146 1.0 5.0 0.00 0.00 0.00 16 1025.4
20260904213108 93 319 1.0 8.0 0.00 0.00 0.00 17 1025.7
20260904211613 94 148 1.0 6.0 0.00 0.00 0.00 17 1025.7
20260904210104 93 49 1.0 6.0 0.00 0.00 0.00 18 1025.9
20260904204601 92 57 2.0 10.0 0.00 0.00 0.00 16 1026.1
20260904203057 93 0 0.0 5.0 0.00 0.00 0.00 17 1026.3
20260904201556 93 9 1.0 6.0 0.00 0.00 0.00 17 1026.4
20260904200120 92 109 2.0 9.0 0.00 0.00 0.00 17 1026.5
20260904194612 91 59 2.0 9.0 0.00 0.00 0.00 17 1026.6
20260904193107 91 136 2.0 8.0 0.00 0.00 0.00 18 1026.7
20260904191602 91 120 1.0 5.0 0.00 0.00 0.00 18 1026.8
20260904190109 90 134 3.0 12.0 0.00 0.00 0.00 17 1027.1
20260904184616 90 83 2.0 10.0 0.00 0.00 0.00 17 1027.2
20260904183106 90 169 2.0 10.0 0.00 0.00 0.00 18 1027.3
20260904181613 90 129 3.0 9.0 0.00 0.00 0.00 18 1027.4
20260904180058 89 190 2.0 8.0 0.00 0.00 0.00 19 1027.6
20260904174605 88 108 2.0 9.0 0.00 0.00 0.00 20 1027.7
20260904173059 87 112 2.0 9.0 0.00 0.00 0.00 20 1027.8
20260904171620 87 105 2.0 7.0 0.00 0.00 0.00 21 1027.7
20260904170057 86 168 2.0 10.0 0.00 0.00 0.00 22 1027.8
20260904164620 85 0 1.0 8.0 0.00 0.00 0.00 23 1027.8
20260904163100 85 99 2.0 5.0 0.00 0.00 0.00 24 1027.9
20260904161610 83 92 0.0 7.0 0.00 0.00 0.00 27 1027.9
20260904160058 81 104 2.0 4.0 0.00 0.00 0.00 30 1027.8
20260904154602 79 0 0.0 4.0 0.00 0.00 0.00 35 1027.9
20260904153112 77 0 1.0 4.0 0.00 0.00 0.00 36 1027.8
20260904151601 76 0 0.0 5.0 0.00 0.00 0.00 35 1027.7
20260904150100 73 0 0.0 2.0 0.00 0.00 0.00 43 1027.5
20260904144555 72 0 0.0 3.0 0.00 0.00 0.00 40 1027.7
20260904143102 71 0 0.0 0.0 0.00 0.00 0.00 37 1027.8
20260904141604 66 0 0.0 0.0 0.00 0.00 0.00 48 1027.7
20260904140101 63 0 0.0 2.0 0.00 0.00 0.00 53 1027.5
20260904134554 60 0 0.0 0.0 0.00 0.00 0.00 54 1027.2
20260904133116 59 0 0.0 0.0 0.00 0.00 0.00 56 1027.0
20260904131612 58 0 0.0 0.0 0.00 0.00 0.00 55 1026.9
20260904130059 58 0 0.0 0.0 0.00 0.00 0.00 55 1026.8
20260904124601 58 0 0.0 0.0 0.00 0.00 0.00 56 1026.6
20260904123054 59 0 0.0 0.0 0.00 0.00 0.00 56 1026.6
20260904121553 59 0 0.0 0.0 0.00 0.00 0.00 53 1026.4
20260904114601 59 0 0.0 0.0 0.00 0.00 0.00 51 1026.4
20260904113054 59 0 0.0 0.0 0.00 0.00 0.00 52 1026.4
20260904111557 60 0 0.0 0.0 0.00 0.00 0.00 52 1026.1
20260904104612 61 0 0.0 0.0 0.00 0.00 0.00 52 1025.8
20260904103058 62 0 0.0 0.0 0.00 0.00 0.00 48 1025.7
20260904101605 63 0 0.0 0.0 0.00 0.00 0.00 46 1025.6
20260904100117 64 0 0.0 0.0 0.00 0.00 0.00 45 1025.7
20260904094605 64 0 0.0 0.0 0.00 0.00 0.00 43 1025.4
20260904093103 65 0 0.0 0.0 0.00 0.00 0.00 43 1025.5
20260904091600 65 0 0.0 0.0 0.00 0.00 0.00 42 1025.2